Retour au catalogue

ANTELSAT

ActifRadio amateurSSO
NORAD 40034·PAYLOAD·🇺🇾 Uruguay

Lancé Jun 19, 2014 depuis Dombarovsky

Loading…

Prochains Passages (prochaines 24 heures)

TLE

FraisSource: Space-Track

Époque: Sep 14, 2026, 09:10 UTC

1 40034U 14033AA  26257.38241654  .00003406  00000-0  34061-3 0  9997
2 40034  97.7897  51.9308 0044063 120.2451 240.3140 14.91388389659107

Suivez ANTELSAT en temps réel avec AllMySat

Download on the App Store